EW5191 Weather Reports


Display with metric or nautical units.
time (UTC)temp
F
wind
direction
speed
MPH
gust
MPH
rain 1hr
in
rain 24hr
in
rain mn
in
humidity
%
barometer
mb
20260510020057 60 8 7.0 11.0 0.00 0.11 0.11 47 1016.0
20260510014556 62 4 7.0 12.0 0.00 0.11 0.11 43 1015.9
20260510013055 63 47 5.0 13.0 0.00 0.11 0.11 42 1015.7
20260510011600 63 38 4.0 8.0 0.00 0.11 0.11 44 1015.5
20260510010058 63 45 0.0 3.0 0.00 0.11 0.11 43 1015.3
20260510004552 62 29 3.0 8.0 0.00 0.11 0.11 42 1015.2
20260510003052 63 46 6.0 12.0 0.00 0.11 0.11 43 1014.9
20260510001651 63 12 6.0 11.0 0.00 0.11 0.11 42 1014.7
20260510000103 63 66 6.0 9.0 0.00 0.11 0.11 42 1014.6
20260509234557 64 48 2.0 5.0 0.00 0.11 0.11 44 1014.5
20260509233050 63 92 1.0 5.0 0.00 0.11 0.11 46 1014.2
20260509231548 63 40 7.0 11.0 0.00 0.11 0.11 49 1014.1
20260509230044 62 52 1.0 12.0 0.00 0.11 0.11 46 1014.1
20260509224543 60 18 4.0 9.0 0.00 0.11 0.11 50 1013.8
20260509223043 59 132 3.0 9.0 0.00 0.11 0.11 53 1013.6
20260509221544 60 112 5.0 12.0 0.00 0.11 0.11 51 1013.6
20260509220038 62 148 6.0 12.0 0.00 0.11 0.11 50 1013.6
20260509214537 61 135 6.0 11.0 0.00 0.11 0.11 50 1013.7
20260509213038 60 147 5.0 9.0 0.00 0.11 0.11 50 1014.0
20260509211536 59 137 4.0 8.0 0.00 0.11 0.11 51 1014.2
20260509210040 59 181 6.0 10.0 0.00 0.11 0.11 54 1014.3
20260509204539 59 127 7.0 10.0 0.00 0.11 0.11 54 1014.3
20260509203036 58 148 2.0 6.0 0.00 0.11 0.11 53 1014.2
20260509201538 57 254 4.0 9.0 0.00 0.11 0.11 49 1014.2
20260509200132 57 312 7.0 14.0 0.00 0.11 0.11 48 1014.5
20260509194535 57 339 7.0 10.0 0.00 0.11 0.11 60 1014.1
20260509193030 57 50 5.0 9.0 0.00 0.11 0.11 61 1013.7
20260509191529 57 30 2.0 8.0 0.00 0.11 0.11 59 1013.6
20260509190032 57 234 1.0 9.0 0.00 0.11 0.11 66 1013.6
20260509184540 54 139 3.0 13.0 0.00 0.11 0.11 70 1013.8
20260509183031 55 51 12.0 18.0 0.00 0.11 0.11 61 1013.9
20260509181526 58 60 0.0 8.0 0.02 0.11 0.11 67 1013.4
20260509180025 56 123 3.0 7.0 0.07 0.11 0.11 74 1013.3
20260509174530 54 149 4.0 6.0 0.07 0.11 0.11 79 1013.6
20260509173024 53 148 2.0 5.0 0.07 0.11 0.11 82 1013.8
20260509171531 53 129 1.0 3.0 0.06 0.10 0.10 75 1013.9
20260509170021 53 167 3.0 9.0 0.00 0.04 0.04 75 1013.8
20260509164520 54 168 5.0 10.0 0.00 0.04 0.04 74 1013.4
20260509163023 52 147 5.0 9.0 0.00 0.04 0.04 78 1013.4
20260509161523 52 143 3.0 6.0 0.00 0.04 0.04 80 1013.8
20260509160020 52 151 3.0 6.0 0.03 0.04 0.04 79 1013.8
20260509154619 52 185 5.0 7.0 0.03 0.04 0.04 81 1013.6
20260509153031 51 164 5.0 8.0 0.04 0.04 0.04 82 1013.4
20260509151518 50 149 3.0 6.0 0.04 0.04 0.04 82 1013.4
20260509150026 51 293 1.0 3.0 0.02 0.02 0.02 77 1013.9
20260509144525 51 147 0.0 4.0 0.01 0.01 0.01 82 1013.7
20260509143019 52 26 1.0 6.0 0.00 0.00 0.00 78 1013.7
20260509141517 52 1 0.0 2.0 0.00 0.00 0.00 76 1013.8
20260509140012 53 297 1.0 3.0 0.00 0.00 0.00 72 1013.5
20260509134515 53 33 0.0 4.0 0.00 0.00 0.00 71 1013.0
20260509133016 53 7 1.0 3.0 0.00 0.00 0.00 71 1013.0
20260509131511 53 340 4.0 11.0 0.00 0.00 0.00 69 1012.7
20260509130004 54 355 6.0 15.0 0.00 0.00 0.00 69 1012.4
20260509124500 54 358 10.0 18.0 0.00 0.00 0.00 68 1012.1
20260509123131 54 357 7.0 14.0 0.00 0.00 0.00 67 1011.8
20260509121612 55 351 8.0 14.0 0.00 0.00 0.00 67 1011.5
20260509120112 55 341 7.0 12.0 0.00 0.00 0.00 65 1011.3
20260509114555 55 332 10.0 13.0 0.00 0.00 0.00 65 1011.0
20260509113050 55 12 9.0 17.0 0.00 0.00 0.00 65 1010.8
20260509111600 55 348 5.0 9.0 0.00 0.00 0.00 65 1010.5
20260509110044 55 329 2.0 8.0 0.00 0.00 0.00 66 1010.4
20260509104546 54 354 0.0 3.0 0.00 0.00 0.00 69 1010.1
20260509103054 54 346 0.0 5.0 0.00 0.00 0.00 72 1009.9
20260509101614 53 284 1.0 9.0 0.00 0.00 0.00 76 1010.3
20260509100043 52 269 3.0 6.0 0.00 0.00 0.00 79 1009.9
20260509094637 52 217 2.0 3.0 0.00 0.00 0.00 78 1009.5
20260509093036 51 251 0.0 1.0 0.00 0.00 0.00 79 1009.5
20260509091541 51 222 0.0 3.0 0.00 0.00 0.00 77 1009.5
20260509090038 52 277 0.0 2.0 0.00 0.00 0.00 74 1009.3
20260509084533 55 47 0.0 2.0 0.00 0.00 0.00 70 1008.9
20260509083028 54 21 1.0 2.0 0.00 0.00 0.00 73 1009.2
20260509081528 56 174 1.0 2.0 0.00 0.00 0.00 69 1009.0
20260509080026 56 26 0.0 3.0 0.00 0.00 0.00 67 1009.3
20260509074531 57 150 0.0 0.0 0.00 0.01 0.00 63 1009.6
20260509073020 57 151 2.0 5.0 0.00 0.01 0.00 62 1009.6
20260509071519 57 158 2.0 5.0 0.00 0.01 0.00 63 1009.8
20260509070018 58 157 3.0 5.0 0.00 0.01 0.00 61 1009.6
20260509064514 58 142 2.0 4.0 0.00 0.01 0.00 58 1009.3
20260509063022 59 90 0.0 10.0 0.00 0.01 0.00 56 1009.5
20260509061512 59 279 0.0 4.0 0.00 0.01 0.00 56 1009.4
20260509060008 59 34 4.0 9.0 0.00 0.01 0.00 55 1008.9
20260509054507 60 45 1.0 4.0 0.00 0.10 0.01 55 1009.1
20260509053007 60 354 2.0 10.0 0.00 0.10 0.01 54 1009.4
20260509051508 61 25 9.0 14.0 0.00 0.10 0.01 52 1009.4
20260509050009 61 37 10.0 16.0 0.00 0.10 0.01 50 1009.6
20260509044506 60 355 12.0 19.0 0.00 0.15 0.01 52 1009.9
20260509043005 58 291 3.0 4.0 0.00 0.15 0.01 60 1009.3
20260509041505 59 237 0.0 1.0 0.00 0.15 0.01 57 1008.8
20260509040005 60 220 0.0 1.0 0.00 0.20 0.01 53 1008.5
20260509034504 62 195 1.0 1.0 0.00 0.20 0.01 48 1008.4
20260509033006 62 153 0.0 1.0 0.00 0.20 0.01 47 1008.2
20260509031505 62 113 0.0 0.0 0.00 0.20 0.01 54 1008.1
20260509030005 65 113 0.0 1.0 0.00 0.20 0.01 38 1007.8
20260509024507 65 113 0.0 0.0 0.00 0.20 0.01 40 1007.7
20260509023008 65 113 0.0 1.0 0.00 0.20 0.01 41 1007.5
20260509021507 66 113 0.0 0.0 0.00 0.20 0.01 42 1007.4